Lapse_Rate
4.1 4.1 3.9 3.8 3.7 3.4 3.2 3.5 3.7 3.8 3.6 3.7 3.8 3.5 3.2 3.1 2.7 2.5 2.0 1.8 1.7 1.7 1.9 2.1 2.5 2.6 2.7 5.5 4.9 4.3 4.0 3.8 3.4 4.8 5.3 6.4 6.5 5.9 6.5 6.4 5.7 6.5 6.5 6.1 6.0 5.7 5.3
4.3 3.9 3.7 3.5 3.6 3.6 3.7 4.2 4.7 4.8 4.2 4.3 4.2 4.1 3.3 3.0 2.7 2.4 2.0 1.8 1.6 1.4 1.7 2.2 2.5 3.0 3.3 6.4 6.1 5.0 4.9 5.2 6.1 6.1 6.2 6.6 6.8 6.4 5.9 6.3 6.5 6.0 6.0 5.9 5.4 5.3 5.6
5.2 4.0 3.5 3.3 3.1 3.6 4.0 4.7 5.9 5.8 5.4 5.2 4.9 4.7 3.7 3.1 2.6 2.3 2.1 1.8 1.6 1.6 1.9 2.5 2.9 4.0 5.7 3.8 6.2 6.8 8.0 7.8 7.7 7.5 7.0 7.5 6.9 6.3 5.8 6.5 5.9 5.9 6.5 6.5 6.5 5.7 6.4
5.7 4.6 3.8 3.5 3.3 3.8 4.4 5.1 6.3 6.7 6.4 6.3 6.3 5.5 4.4 3.2 2.5 2.3 2.2 1.9 1.7 1.8 2.3 2.9 3.9 5.3 4.8 5.6 6.4 5.1 6.9 7.5 7.4 7.6 7.2 7.1 7.1 6.5 6.2 5.7 5.9 6.5 6.5 6.5 6.5 6.5 6.3
4.8 5.1 4.2 3.9 3.0 3.4 5.1 5.6 6.5 6.6 7.4 7.2 6.7 6.3 5.0 3.7 2.8 2.6 2.3 2.2 2.2 2.5 3.0 4.0 4.3 4.9 6.9 7.8 7.0 7.4 6.9 7.8 7.8 7.4 7.0 8.9 7.2 6.0 5.6 6.5 6.5 6.5 6.5 6.5 6.5 6.5 6.5
5.4 5.4 5.2 4.0 4.5 4.6 5.1 5.9 6.3 6.6 7.0 6.7 6.7 6.7 5.8 4.2 3.3 2.6 2.1 2.5 3.1 3.8 5.0 7.0 7.2 6.5 6.2 7.0 8.2 8.6 8.0 8.5 7.7 7.2 6.6 6.6 5.5 6.5 6.5 6.5 6.5 6.5 6.5 6.5 6.5 6.5 6.5
5.7 5.8 4.7 4.0 4.5 4.9 5.7 6.3 6.3 6.5 6.8 7.1 7.3 6.7 6.1 5.4 3.5 2.8 2.2 4.0 4.6 5.1 7.3 6.7 6.3 7.2 7.1 7.7 7.8 7.7 7.9 7.5 7.5 6.4 6.5 5.6 6.5 6.5 6.5 6.5 6.5 6.5 6.5 6.5 6.5 6.5 6.5
5.9 5.9 4.5 4.1 4.9 5.1 6.0 6.5 6.5 7.0 7.4 7.8 7.5 6.5 5.4 4.1 3.1 3.4 3.0 5.1 7.5 6.7 6.2 7.0 5.8 7.7 8.1 8.1 7.1 7.4 7.4 6.3 6.1 6.5 6.5 6.5 6.5 6.5 6.5 6.5 6.5 6.5 6.5 6.5 6.5 6.5 6.5
5.5 4.5 4.1 4.6 5.2 6.1 6.6 6.7 7.1 7.7 8.1 8.0 7.0 6.6 5.7 4.7 3.6 3.6 5.6 7.6 7.7 6.0 6.3 6.9 7.2 7.6 7.8 7.5 7.0 6.9 6.8 6.6 6.5 6.5 6.5 6.5 6.5 6.5 6.5 6.5 6.5 6.5 6.5 6.5 6.5 6.5 6.5
3.2 4.1 5.8 6.1 6.1 6.2 6.7 7.2 7.6 7.5 7.4 7.1 6.8 6.2 5.9 4.9 3.8 5.7 7.5 7.7 7.1 6.4 6.5 6.5 6.7 7.4 7.7 7.7 6.6 7.9 8.0 7.0 6.4 6.5 6.5 6.5 6.5 6.5 6.5 6.5 6.5 6.5 6.5 6.5 6.5 6.5 6.5
5.4 5.7 5.9 6.1 6.3 6.6 7.0 7.1 6.9 7.1 7.8 7.1 6.9 6.8 5.8 5.2 3.2 6.0 7.7 7.4 6.9 5.8 6.5 6.5 6.7 8.4 7.8 6.9 6.8 6.9 7.8 7.1 6.5 6.5 6.5 6.5 6.5 6.5 6.5 6.5 6.5 6.5 6.5 6.5 6.5 6.5 6.5
6.9 6.7 6.6 6.7 6.8 6.9 6.9 6.8 7.3 7.8 7.4 7.5 6.6 6.0 5.9 5.6 4.3 7.3 6.9 5.6 6.0 6.5 6.5 6.5 6.7 6.5 6.5 6.7 6.7 6.9 6.8 6.8 6.7 6.5 6.5 6.5 5.8 6.5 6.5 6.5 6.5 6.5 6.5 6.5 6.5 6.5 6.5
6.7 7.0 7.1 7.0 6.9 6.8 6.7 6.8 7.0 7.3 6.9 6.0 5.9 6.1 6.0 7.0 6.9 7.7 5.5 5.5 6.5 6.5 6.5 6.5 6.5 6.5 6.5 6.5 6.5 6.5 6.5 6.5 6.5 6.5 6.5 6.5 6.5 6.5 6.5 6.5 6.5 6.5 6.5 6.5 6.5 6.5 6.5
6.8 6.7 6.6 6.8 6.8 6.7 6.5 6.4 6.3 6.8 6.8 6.5 6.1 5.6 5.6 7.6 7.8 6.2 5.4 6.5 6.5 6.5 6.5 6.5 6.5 6.5 6.5 6.5 6.5 6.5 6.5 6.5 6.5 6.5 6.5 6.5 6.5 6.5 6.5 6.5 6.5 6.5 6.5 6.5 6.5 6.5 6.5
6.4 6.1 6.1 6.2 6.4 6.1 6.2 7.2 6.4 6.4 5.5 6.0 6.2 5.0 5.9 6.4 7.1 5.1 5.5 6.5 6.5 6.5 6.5 6.5 6.5 6.5 6.5 6.5 6.5 6.5 6.5 6.5 6.5 6.5 6.5 6.5 6.5 6.5 6.5 6.5 6.5 6.5 6.5 6.5 6.5 6.5 6.5
6.9 6.7 6.9 6.8 6.6 6.9 7.2 7.6 7.5 7.2 6.1 6.0 5.3 6.3 6.5 7.0 6.7 5.1 6.3 6.5 6.5 6.5 6.5 6.5 6.5 6.5 6.5 6.5 6.5 6.5 6.5 6.5 6.5 6.5 6.5 6.5 6.5 6.5 6.5 6.5 6.5 6.5 6.5 6.5 6.5 6.5 6.5
7.4 7.2 7.3 7.4 7.8 8.1 7.8 7.6 8.3 7.2 6.6 6.5 4.5 5.9 6.0 7.0 5.7 5.2 6.5 6.5 6.5 6.9 6.8 6.5 6.5 6.5 6.5 6.5 6.5 6.5 6.5 6.5 6.5 6.5 6.6 6.5 6.5 6.5 6.5 6.5 6.5 6.5 6.5 6.5 6.5 6.5 6.5
7.3 8.1 7.6 7.5 8.1 7.7 7.8 7.8 7.4 6.7 5.9 5.5 5.0 6.5 6.1 6.0 6.2 6.0 6.5 6.5 5.1 6.6 7.0 6.5 6.5 6.5 6.5 6.5 6.5 6.5 6.5 6.5 6.3 6.4 6.5 6.5 6.5 6.5 6.5 6.5 6.5 6.5 6.5 6.5 6.5 6.5 6.5
8.2 8.5 8.7 8.4 8.3 7.9 8.1 7.7 7.2 6.5 6.0 4.6 5.3 5.0 5.5 5.1 6.5 6.5 6.5 6.5 6.6 6.5 6.5 6.5 6.5 6.5 6.5 6.5 6.5 6.5 6.5 6.3 6.2 6.5 6.5 6.5 6.5 6.5 6.5 6.5 6.5 6.5 6.5 6.5 6.5 6.5 6.5
8.1 8.1 8.3 8.2 8.2 8.2 8.0 7.8 7.0 6.5 5.8 4.5 4.7 6.5 5.3 5.2 5.2 6.5 6.5 6.5 6.5 6.9 6.5 6.7 6.5 6.5 6.5 6.5 6.5 6.5 6.5 6.5 6.1 6.4 6.5 6.4 6.5 6.5 6.5 6.5 6.5 6.5 6.5 6.5 6.5 6.5 6.5
7.8 7.7 7.8 8.1 8.3 8.1 7.9 7.5 6.9 6.1 5.6 4.1 4.7 6.0 6.6 6.5 6.3 6.5 6.5 6.5 6.5 6.5 6.6 6.7 6.5 6.5 6.5 6.5 6.5 6.5 6.5 6.5 6.5 6.4 6.3 6.5 6.5 6.5 6.5 6.5 6.5 6.5 6.5 6.5 6.5 6.5 6.5
7.9 7.8 7.7 7.9 7.9 8.1 7.8 7.1 6.8 6.1 5.7 4.3 4.3 5.8 5.1 5.6 6.0 6.5 6.5 6.5 6.5 6.5 6.5 6.5 6.5 6.5 6.5 6.5 6.5 6.5 6.5 6.5 6.5 6.5 6.5 6.5 6.5 6.5 6.5 6.5 6.5 6.5 6.5 6.5 6.5 6.5 6.5
8.0 7.9 7.8 7.8 7.9 8.2 7.9 7.3 6.7 6.2 5.7 5.8 5.7 5.7 5.2 6.0 6.5 6.5 6.5 6.5 6.5 6.5 6.6 6.8 6.5 6.5 6.5 6.5 6.1 6.0 5.9 6.1 6.4 6.5 6.5 6.5 6.5 6.5 6.5 6.5 6.5 6.5 6.5 6.5 6.5 6.5 6.5
7.8 7.9 7.9 7.8 7.9 8.0 7.7 7.3 6.7 6.5 5.5 4.5 5.6 5.0 4.0 6.5 6.5 6.5 6.5 6.5 6.5 6.5 6.5 6.5 6.2 6.5 6.6 6.4 6.0 5.9 6.4 6.5 6.4 6.5 6.5 6.5 6.5 6.5 6.5 6.5 6.5 6.5 6.5 6.5 6.5 6.5 6.5
7.5 7.5 7.9 8.0 8.1 7.8 7.7 7.2 6.7 6.4 6.4 4.9 5.7 5.6 5.0 6.5 6.4 6.5 6.5 6.5 6.5 6.4 6.5 6.3 6.5 6.5 5.8 6.3 6.5 6.5 6.5 6.5 6.5 6.5 6.5 6.5 6.5 6.5 6.5 6.5 6.5 6.5 6.5 6.5 6.5 6.5 6.5
7.7 7.4 8.1 8.2 8.3 8.1 7.6 7.1 6.8 6.7 6.7 5.5 5.8 5.5 5.1 4.9 6.2 7.0 6.4 6.6 6.5 6.5 6.5 6.4 7.0 6.9 6.7 6.2 6.5 6.5 6.5 6.5 6.5 6.5 6.5 6.5 6.5 6.5 6.5 6.5 6.5 6.5 6.5 6.9 6.5 6.5 6.5
7.7 7.8 8.0 8.0 8.1 7.9 7.6 7.2 7.1 6.9 6.7 5.1 6.0 6.3 5.5 4.0 5.7 6.2 6.1 6.4 6.2 6.1 6.5 5.8 5.9 5.8 5.4 6.5 6.5 6.5 6.5 6.5 6.5 6.5 6.5 6.5 6.5 6.5 6.5 6.5 6.5 6.5 6.6 7.1 6.5 6.5 6.8
7.9 8.0 8.0 7.9 7.9 7.9 7.6 7.3 7.2 6.9 6.6 5.5 6.1 6.9 5.2 4.6 6.0 6.7 7.4 6.4 5.7 5.2 6.5 4.8 5.9 5.6 6.1 6.5 6.5 6.5 6.5 6.5 6.5 6.5 6.5 6.5 6.5 6.5 6.5 6.5 6.5 6.9 6.7 6.5 6.7 7.1 7.2
7.7 7.7 7.8 7.8 7.6 7.8 7.6 7.4 7.2 7.0 6.6 6.8 6.4 7.5 7.0 5.5 6.0 6.5 6.1 6.8 7.4 7.4 5.7 5.1 5.5 5.5 4.5 6.5 6.5 6.5 6.5 6.5 6.5 6.5 6.5 6.5 6.5 6.5 6.5 6.5 6.7 6.9 6.8 6.8 7.2 7.0 7.2
Wind_Speed
37 37 35 34 33 30 27 24 23 19 16 14 13 11 11 12 14 16 15 16 18 21 20 19 16 13 8 4 11 7 9 7 6 4 4 9 9 6 10 5 10 15 15 15 14 15 12
39 39 38 36 35 32 29 26 24 20 17 15 13 12 9 12 13 15 17 18 19 20 21 19 14 7 3 7 7 17 11 8 7 7 7 12 8 10 8 11 12 10 12 13 7 9 8
40 40 39 38 36 32 29 26 23 20 18 16 14 11 9 10 13 16 19 19 20 21 20 19 12 6 7 16 6 6 9 7 5 7 11 11 8 6 7 8 7 7 9 11 8 8 12
41 40 40 39 35 32 28 26 23 20 16 15 12 10 8 10 14 17 19 21 21 21 20 15 6 5 8 9 13 14 8 6 9 9 7 9 7 6 4 7 9 7 7 7 5 10 16
37 38 36 36 35 31 27 23 21 18 14 14 10 9 9 11 14 17 21 23 23 20 12 7 5 4 7 6 5 11 9 9 10 9 7 10 5 3 8 5 4 5 8 11 18 14 16
35 35 36 33 31 30 26 21 20 16 14 9 7 9 10 12 15 18 20 27 16 8 5 6 8 2 7 4 4 0 2 5 4 2 6 5 1 4 3 2 6 6 7 8 7 7 14
29 32 32 32 33 32 27 24 21 17 11 10 10 8 10 14 17 17 10 6 1 3 6 10 11 6 7 7 5 4 6 7 4 5 7 7 4 8 9 11 16 16 16 15 12 12 10
25 30 31 34 33 29 26 24 20 16 14 13 8 7 9 13 17 18 6 4 3 3 6 17 20 16 12 2 4 11 8 6 7 8 8 5 9 13 13 16 16 17 13 8 8 9 12
22 28 32 33 29 27 26 21 19 18 15 9 4 6 8 13 15 10 6 3 5 6 2 8 13 17 10 7 5 4 9 5 6 7 10 9 10 16 17 16 10 9 6 8 13 13 14
26 28 27 29 28 22 18 15 13 13 9 5 2 4 10 11 4 4 1 4 3 0 0 5 8 7 6 6 5 8 4 3 5 8 10 10 12 13 12 11 7 11 8 14 14 12 9
29 29 27 24 22 17 14 13 14 10 6 3 2 7 9 7 6 1 3 4 1 2 2 13 9 6 7 7 1 6 5 3 5 9 4 7 9 8 7 8 5 13 9 8 7 13 9
17 20 21 21 22 22 19 17 13 9 4 1 5 9 12 4 3 4 4 4 3 1 4 10 8 8 7 10 8 5 5 2 3 5 9 12 8 7 8 8 4 6 5 7 8 7 9
18 16 19 24 21 19 17 13 10 6 4 6 8 11 10 8 1 5 3 2 2 2 10 4 7 5 3 3 7 3 7 7 4 3 7 14 16 19 15 10 3 4 2 3 3 3 8
22 20 21 18 17 14 12 10 8 5 4 6 9 10 8 7 3 6 1 2 3 7 7 5 6 6 3 5 6 11 4 4 5 7 6 8 14 9 14 17 9 7 8 4 4 3 10
20 19 16 13 12 11 9 8 11 6 5 11 14 2 3 3 3 2 1 2 2 5 5 4 5 5 5 5 3 5 4 5 6 13 6 6 6 12 11 4 9 4 6 14 11 10 8
17 17 14 12 12 13 13 12 10 5 4 6 3 3 3 7 3 0 1 2 4 8 6 6 2 5 4 9 7 9 6 6 11 7 7 6 8 7 10 10 6 8 4 3 2 4 5
15 14 11 8 14 13 11 9 5 3 4 5 1 2 2 6 2 1 2 1 9 7 8 7 6 5 6 5 5 5 3 10 11 12 9 7 1 9 11 3 6 5 6 4 4 5 3
14 12 13 10 10 9 8 7 3 2 8 2 3 1 3 1 2 3 1 4 3 6 3 4 1 1 1 5 3 3 4 5 10 9 5 3 3 6 16 21 18 17 10 5 7 6 5
14 11 10 13 11 9 8 6 2 3 7 2 2 3 2 3 2 1 3 7 6 2 5 2 2 5 6 3 2 3 7 9 7 5 2 5 3 5 10 7 7 8 8 11 15 0 8
12 11 10 10 11 10 7 5 2 3 5 1 2 2 1 1 2 4 5 6 5 4 5 2 3 2 3 3 4 3 5 4 7 6 6 2 3 6 8 13 11 11 20 17 6 4 4
12 11 11 11 10 8 7 3 2 6 8 2 2 2 1 1 2 6 5 2 9 4 2 5 1 3 1 2 5 6 9 11 10 6 6 2 5 8 13 18 19 17 21 17 14 16 5
13 13 11 9 9 7 5 3 4 7 10 1 2 2 3 3 4 6 3 2 1 7 1 4 3 4 5 4 5 7 9 8 4 5 4 3 3 5 11 17 18 21 19 16 14 15 8
15 13 11 10 9 7 5 3 5 9 8 2 2 2 3 2 2 2 4 3 4 6 4 2 4 4 6 6 6 7 8 10 11 12 11 7 3 2 8 13 12 10 13 16 10 7 1
17 16 12 10 8 6 5 3 6 9 9 1 2 2 3 1 2 4 7 6 4 4 2 7 7 4 3 7 7 8 13 16 17 18 15 12 5 3 6 10 5 3 14 9 18 11 12
18 17 13 10 8 7 5 3 6 8 8 1 3 3 3 1 1 7 5 4 4 3 4 5 7 3 5 5 4 6 5 4 9 17 14 16 7 2 3 3 8 5 9 8 1 9 16
17 16 14 13 10 8 6 3 4 6 9 2 3 2 3 2 5 9 6 3 1 3 2 4 6 4 3 2 2 2 3 4 4 7 6 10 12 6 2 3 4 10 17 24 20 6 13
15 12 11 12 10 10 8 4 3 5 7 3 2 5 3 3 5 6 4 2 3 3 1 4 5 6 4 2 1 2 3 7 3 5 3 4 4 9 6 2 3 9 24 24 3 4 10
16 14 12 12 11 11 10 7 4 6 8 4 3 7 3 1 4 6 5 3 3 4 2 4 4 5 4 4 3 3 2 3 4 2 6 3 2 3 4 4 1 21 9 7 5 10 11
15 13 11 13 13 13 11 8 5 5 5 6 2 4 4 3 2 3 5 4 2 3 2 4 2 2 1 3 3 2 2 3 8 2 6 3 4 2 5 3 6 8 10 10 11 10 10
Wind_Direction
224 222 220 217 218 208 204 210 212 212 217 225 236 244 265 278 283 290 294 296 297 296 295 296 300 313 324 235 248 178 173 154 150 144 214 227 245 232 243 242 257 267 269 268 263 252 258
223 221 217 215 213 207 201 207 206 206 207 217 230 242 260 280 288 292 294 296 296 294 293 291 292 295 239 255 242 164 184 174 216 193 225 236 246 240 241 236 242 251 266 268 285 299 301
226 218 216 213 206 205 198 199 203 202 205 217 224 235 258 275 286 292 295 297 296 293 288 287 282 222 245 245 273 267 257 211 232 230 245 261 260 292 299 315 300 300 313 302 288 293 291
229 222 212 211 203 195 192 190 199 202 201 214 223 240 259 278 289 293 297 296 293 288 286 282 247 206 251 261 255 253 282 249 214 238 269 293 313 317 299 303 323 342 307 286 281 267 269
229 221 214 208 195 185 183 188 191 194 200 204 218 247 264 283 289 296 299 298 290 284 265 264 195 227 258 293 218 234 214 229 229 222 231 262 304 262 307 292 309 245 263 261 280 265 268
226 218 213 199 184 174 175 180 191 188 192 188 224 259 277 288 295 299 309 296 274 303 232 199 262 248 259 240 181 76 275 264 277 233 221 214 316 235 268 202 237 238 243 263 266 292 314
225 213 200 182 172 168 172 187 181 175 177 195 217 252 285 296 299 307 336 327 134 201 250 197 186 222 307 308 343 221 221 275 210 289 203 197 175 227 226 219 237 252 262 271 281 285 298
217 216 182 166 161 164 176 174 165 175 189 203 212 242 284 298 302 309 307 242 38 175 297 233 249 249 268 295 286 243 193 209 186 223 244 240 218 235 237 249 245 239 253 275 283 290 289
211 173 160 155 157 171 160 161 174 183 185 184 204 283 302 301 312 303 221 24 59 19 246 284 216 227 235 161 245 142 154 217 228 235 237 234 246 226 235 252 251 269 272 279 268 273 268
126 129 142 140 133 132 142 156 173 163 151 159 253 298 295 307 316 269 210 51 25 332 27 215 195 213 157 203 237 218 142 192 201 246 269 260 249 261 268 238 224 261 244 267 289 298 280
91 103 111 115 120 126 135 142 131 133 145 133 287 274 292 293 309 284 32 359 250 53 250 149 162 129 180 212 165 181 129 156 258 277 250 255 290 302 267 268 295 278 284 291 306 295 308
95 108 119 123 126 125 124 124 128 127 126 225 318 312 312 277 191 287 19 342 29 158 243 169 140 177 196 216 251 134 167 199 258 265 277 268 263 253 248 254 236 322 315 321 287 277 275
76 89 107 110 111 113 117 117 108 98 73 8 314 300 298 303 268 334 338 112 113 184 145 142 151 139 255 307 245 266 192 175 203 173 250 262 256 246 237 250 222 264 6 308 306 225 245
100 96 99 105 108 108 111 124 132 94 20 301 288 302 279 250 346 309 294 181 189 16 57 32 37 13 283 270 270 274 332 344 277 271 286 284 281 279 219 215 193 206 177 191 268 284 302
111 104 103 111 120 121 130 125 88 61 327 311 304 232 247 205 243 349 195 128 46 26 13 18 314 217 239 239 262 57 11 301 58 48 10 340 289 340 323 114 155 237 229 222 252 273 281
125 131 140 149 166 167 156 132 133 180 238 298 292 256 163 184 220 294 131 296 98 51 18 11 41 20 352 25 12 21 345 14 356 60 40 352 303 316 335 331 237 193 230 354 2 294 265
121 122 125 157 143 135 125 126 137 209 283 320 274 221 218 185 158 36 135 32 101 69 35 16 23 20 16 353 24 359 314 339 34 6 13 355 17 309 324 268 264 257 243 244 196 167 244
137 149 146 147 137 127 121 119 144 314 326 276 256 129 225 152 96 216 50 37 323 68 76 69 4 348 334 29 360 341 314 323 34 19 8 5 273 283 281 283 283 287 284 284 233 235 228
155 162 157 152 139 129 120 119 125 21 17 335 251 141 271 80 123 84 133 80 52 119 55 68 75 33 25 353 340 317 10 348 50 25 52 337 317 322 306 298 39 25 326 315 330 63 233
154 147 138 144 139 130 129 126 101 16 8 283 308 84 313 146 263 90 109 133 119 25 62 352 45 56 7 23 334 321 342 314 6 345 147 130 226 231 263 287 307 302 306 303 332 264 297
151 149 146 139 142 137 133 135 51 19 357 359 24 248 176 163 353 89 51 351 122 141 162 231 56 153 249 288 333 309 341 333 329 334 344 134 259 281 276 281 292 279 281 285 303 287 269
154 147 142 149 151 142 130 108 36 9 344 45 98 14 346 73 50 111 38 261 98 131 47 74 103 314 305 317 346 331 334 334 280 323 349 10 280 324 291 304 276 275 276 280 282 274 251
165 156 153 147 153 151 147 113 47 21 5 354 300 278 100 105 142 99 199 144 62 70 326 252 323 37 356 333 357 317 288 273 261 271 270 266 204 298 279 295 283 256 252 249 232 272 25
177 172 166 165 166 171 154 117 59 37 28 329 281 346 56 85 146 194 104 78 66 58 33 350 346 345 18 1 327 293 272 260 254 253 239 236 219 213 280 289 245 204 346 295 102 61 77
183 178 176 177 172 160 158 110 63 37 16 319 311 39 28 14 266 99 86 63 16 343 198 221 268 77 29 352 331 311 297 275 249 248 239 211 201 236 250 266 299 341 5 340 211 61 34
158 174 182 181 177 168 147 107 59 32 8 344 31 360 45 79 351 27 90 116 198 3 27 61 11 346 307 89 33 281 315 283 308 313 234 136 167 194 324 354 311 342 330 316 296 93 37
184 180 176 173 170 158 146 127 73 61 27 20 335 31 54 74 0 45 54 66 27 22 344 61 357 356 52 31 324 266 276 338 310 280 163 139 144 205 215 212 270 356 317 296 139 60 48
170 173 172 166 162 157 144 141 103 71 44 30 325 38 74 40 16 26 9 35 15 44 80 303 38 347 16 21 1 321 348 299 295 309 338 112 203 200 212 202 351 0 351 49 48 57 67
169 166 171 168 163 160 150 146 130 88 57 28 21 31 15 57 265 338 288 279 5 54 79 341 208 50 200 49 16 329 317 293 312 346 8 35 5 53 40 65 47 36 46 35 50 63 71